Regional Weather Roundup
Issued by NWS

Home | Current Version | Previous Version | Graphics & Text | Print | Product List | Glossary On
Versions: 1 2 3 4 5 6 7 8 9 10 11 12 13 14 15 16 17 18 19 20 21 22 23 24 25 26 27 28 29 30 31 32 33 34 35 36 37 38 39 40 41 42 43 44 45 46 47 48 49 50
000
ASUS43 KFSD 071110
RWRSD

WEATHER ROUNDUP FOR SOUTH DAKOTA
NATIONAL WEATHER SERVICE SIOUX FALLS SD
500 AM CST WED DEC 07 2016

NOTE: "FAIR" INDICATES FEW OR NO CLOUDS BELOW 12,000 FEET WITH NO
SIGNIFICANT WEATHER AND/OR OBSTRUCTIONS TO VISIBILITY.


SDZ001>005-009-010-012>017-071200-
NORTHWEST AND NORTH CENTRAL SOUTH DAKOTA

CITY           SKY/WX    TMP DP  RH WIND       PRES   REMARKS
BUFFALO          N/A      1  -5  75 NW18      30.13R WCI -20
FAITH            N/A     -1  -7  75 W25       30.20R WCI -25
MOBRIDGE       CLOUDY     7  -2  66 NW29G40   30.13R WCI -16
$$

SDZ012>016-024>037-041>051-057-063-072>074-071200-
SOUTHWEST AND SOUTH CENTRAL SOUTH DAKOTA

CITY           SKY/WX    TMP DP  RH WIND       PRES   REMARKS
RAPID CTY ARPT CLOUDY     4  -4  69 N18       30.19R WCI -16
PIERRE         MOCLDY     8   2  76 NW29G36   30.20R WCI -15
CUSTER         CLOUDY    -3  -9  75 CALM      29.97R
ELLSWORTH AFB  CLOUDY     3  -4  72 NW23      30.17R WCI -19
PHILIP         CLEAR      3  -4  72 W20G25    30.25R WCI -18
PINE RIDGE     CLOUDY     1  -2  87 NE3       30.17R
SPEARFISH      CLOUDY     3  -4  72 NW17      30.17R WCI -17
WINNER         FAIR       8  -1  66 NW21      30.22S WCI -12
$$

SDZ004>011-016>023-039-040-071200-
NORTHEAST SOUTH DAKOTA

CITY           SKY/WX    TMP DP  RH WIND       PRES   REMARKS
ABERDEEN       CLEAR      8   0  69 W23G29    30.12R WCI -13
WATERTOWN      CLOUDY     6   1  80 W22G32    30.03R WCI -15
BROOKINGS      CLEAR      6   1  80 W22G30    30.06R WCI -15
SISSETON         N/A     12   4  70 NW28G35   30.00R WCI  -9
$$

SDZ017-020-022-023-036>040-048>070-071200-
SOUTHEAST SOUTH DAKOTA

CITY           SKY/WX    TMP DP  RH WIND       PRES   REMARKS
SIOUX FALLS    CLEAR      9   3  77 W21G29    30.14R WCI -11
HURON          CLEAR      8   2  76 NW16      30.17R WCI -10
CHAMBERLAIN    CLOUDY     9   2  73 W26G32    30.21F WCI -13
MITCHELL       CLEAR     10   2  69 W23       30.20R WCI -10
YANKTON        CLEAR     10   1  67 W17G23    30.22R WCI  -7
$$

ABBREVIATIONS USED IN REMARKS
   TC - TEMPERATURE IN CELSIUS
  WCI - WIND CHILL INDEX
   HX - HEAT INDEX
  VSB - VISIBILITY





USA.gov is the U.S. government's official web portal to all federal, state and local government web resources and services.